EW7336 Weather Reports


time (UTC)temp
C
wind
direction
speed
KPH
gust
KPH
rain 1hr
cm
rain 24hr
cm
rain mn
cm
humidity
%
barometer
mb
20260902194522 33 178 3.2 12.9 0.00 0.00 0.00 58 1014.8
20260902193016 33 282 0.0 12.9 0.00 0.00 0.00 60 1015.0
20260902191515 33 245 4.8 12.9 0.00 0.00 0.00 58 1015.2
20260902190024 33 191 1.6 11.3 0.00 0.00 0.00 62 1015.4
20260902184514 33 166 4.8 14.5 0.00 0.00 0.00 59 1015.3
20260902183012 33 223 3.2 12.9 0.00 0.00 0.00 61 1015.5
20260902181507 32 213 1.6 14.5 0.00 0.00 0.00 62 1015.6
20260902180007 32 182 4.8 11.3 0.00 0.00 0.00 63 1015.6
20260902174503 32 196 6.4 12.9 0.00 0.00 0.00 63 1015.8
20260902173101 32 171 4.8 14.5 0.00 0.00 0.00 64 1015.9
20260902171558 32 202 3.2 12.9 0.00 0.00 0.00 65 1016.2
20260902170056 32 196 4.8 17.7 0.00 0.00 0.00 66 1016.3
20260902164552 31 192 4.8 16.1 0.00 0.00 0.00 69 1016.4
20260902163050 31 239 4.8 14.5 0.00 0.00 0.00 67 1016.5
20260902161552 31 225 6.4 12.9 0.00 0.00 0.00 67 1016.6
20260902160042 31 232 4.8 11.3 0.00 0.00 0.00 69 1016.5
20260902154538 30 212 3.2 11.3 0.00 0.00 0.00 70 1016.6
20260902153037 30 205 4.8 9.7 0.00 0.00 0.00 70 1016.6
20260902151531 30 227 1.6 14.5 0.00 0.00 0.00 72 1016.6
20260902150027 29 170 4.8 9.7 0.00 0.00 0.00 74 1016.7
20260902144522 29 260 3.2 12.9 0.00 0.00 0.00 74 1016.8
20260902143018 28 279 1.6 8.0 0.00 0.00 0.00 77 1016.7
20260902141515 28 228 1.6 8.0 0.00 0.00 0.00 79 1016.8
20260902140008 27 223 3.2 8.0 0.00 0.00 0.00 82 1016.7
20260902134504 26 196 1.6 6.4 0.00 0.00 0.00 84 1016.8
20260902133100 26 196 3.2 8.0 0.00 0.00 0.00 86 1016.9
20260902131605 25 192 1.6 6.4 0.00 0.00 0.00 89 1016.9
20260902130152 24 360 1.6 4.8 0.00 0.00 0.00 91 1016.9
20260902124557 23 192 0.0 3.2 0.00 0.00 0.00 94 1016.8
20260902123046 22 192 0.0 1.6 0.00 0.00 0.00 96 1016.9
20260902121546 22 192 0.0 3.2 0.00 0.00 0.00 96 1016.8
20260902120040 21 192 0.0 1.6 0.00 0.00 0.00 96 1016.6
20260902114538 21 192 0.0 0.0 0.00 0.00 0.00 96 1016.4
20260902113034 21 192 0.0 0.0 0.00 0.00 0.00 95 1016.3
20260902111540 21 192 0.0 0.0 0.00 0.00 0.00 95 1016.2
20260902110037 21 192 0.0 0.0 0.00 0.00 0.00 95 1016.1
20260902104539 21 192 0.0 0.0 0.00 0.00 0.00 95 1016.1
20260902103029 21 192 0.0 0.0 0.00 0.00 0.00 95 1016.0
20260902101536 21 192 0.0 0.0 0.00 0.00 0.00 95 1016.1
20260902100031 21 192 0.0 0.0 0.00 0.00 0.00 95 1015.9
20260902094524 21 192 0.0 0.0 0.00 0.00 0.00 94 1015.9
20260902093023 21 192 0.0 0.0 0.00 0.00 0.00 94 1015.7
20260902091530 21 192 0.0 0.0 0.00 0.00 0.00 94 1015.7
20260902090020 21 192 0.0 0.0 0.00 0.00 0.00 94 1015.7
20260902084619 21 192 0.0 0.0 0.00 0.00 0.00 94 1015.6
20260902083016 21 192 0.0 0.0 0.00 0.00 0.00 94 1015.4
20260902081518 21 192 0.0 0.0 0.00 0.00 0.00 94 1015.2
20260902080013 21 192 0.0 0.0 0.00 0.00 0.00 94 1015.3
20260902074513 21 192 0.0 0.0 0.00 0.00 0.00 93 1015.2
20260902073016 21 192 0.0 0.0 0.00 0.00 0.00 93 1015.1
20260902071517 22 192 0.0 0.0 0.00 0.00 0.00 93 1015.1
20260902070009 22 192 0.0 0.0 0.00 0.00 0.00 94 1015.2
20260902064508 22 192 0.0 0.0 0.00 0.00 0.00 94 1015.2
20260902063012 22 192 0.0 0.0 0.00 0.00 0.00 94 1015.3
20260902061506 22 192 0.0 0.0 0.00 0.00 0.00 93 1015.3
20260902060014 22 192 0.0 0.0 0.00 0.00 0.00 93 1015.2
20260902054506 22 192 0.0 0.0 0.00 0.00 0.00 92 1015.3
20260902053001 22 192 0.0 0.0 0.00 0.00 0.00 92 1015.3
20260902051559 22 192 0.0 0.0 0.00 0.00 0.00 92 1015.2
20260902050105 22 192 0.0 0.0 0.00 0.00 0.00 92 1015.2
20260902044556 22 192 0.0 0.0 0.00 0.00 0.00 92 1015.1
20260902043053 23 192 0.0 0.0 0.00 0.00 0.00 92 1015.2
20260902041604 23 192 0.0 0.0 0.00 0.00 0.00 92 1015.3
20260902040049 23 192 0.0 0.0 0.00 0.00 0.00 91 1015.3
20260902034553 23 192 0.0 0.0 0.00 0.00 0.00 91 1015.3
20260902033103 23 192 0.0 0.0 0.00 0.00 0.00 91 1015.2
20260902031546 23 192 0.0 0.0 0.00 0.00 0.00 90 1015.3
20260902030045 23 192 0.0 0.0 0.00 0.00 0.00 90 1015.2
20260902024546 24 192 0.0 0.0 0.00 0.00 0.00 89 1015.2
20260902023044 24 192 0.0 0.0 0.00 0.00 0.00 88 1015.1
20260902021601 25 192 0.0 0.0 0.00 0.00 0.00 87 1015.1
20260902020042 25 192 0.0 0.0 0.00 0.00 0.00 87 1015.2
20260902014543 25 192 0.0 0.0 0.00 0.00 0.00 85 1015.1
20260902013042 26 192 0.0 0.0 0.00 0.00 0.00 84 1015.0
20260902011543 27 192 0.0 0.0 0.00 0.00 0.00 82 1014.8
20260902010055 27 192 0.0 0.0 0.00 0.00 0.00 80 1014.7
20260902004545 28 192 0.0 0.0 0.00 0.00 0.00 76 1014.5
20260902003040 30 192 0.0 0.0 0.00 0.00 0.00 73 1014.4
20260902001539 31 192 0.0 0.0 0.00 0.00 0.00 70 1014.5
20260902000049 32 192 0.0 0.0 0.00 0.00 0.00 66 1014.6
20260901234602 32 192 0.0 0.0 0.00 0.00 0.00 66 1014.7
20260901233135 32 192 0.0 0.0 0.00 0.00 0.00 66 1014.8
20260901231546 33 192 0.0 1.6 0.00 0.00 0.00 61 1014.9
20260901230045 33 192 0.0 4.8 0.00 0.00 0.00 59 1014.9
20260901224537 33 192 4.8 11.3 0.00 0.00 0.00 56 1014.7
20260901223042 33 193 0.0 8.0 0.00 0.00 0.00 57 1014.8
20260901221535 33 193 4.8 8.0 0.00 0.00 0.00 55 1014.8
20260901220034 33 196 1.6 6.4 0.00 0.00 0.00 58 1014.7
20260901214530 33 197 3.2 8.0 0.00 0.00 0.00 57 1014.7
20260901213030 33 180 1.6 8.0 0.00 0.00 0.00 56 1014.7
20260901211541 33 186 3.2 9.7 0.00 0.00 0.00 55 1014.7
20260901210026 33 209 3.2 9.7 0.00 0.00 0.00 58 1014.8
20260901204538 33 161 1.6 12.9 0.00 0.00 0.00 59 1014.9
20260901203025 33 213 1.6 9.7 0.00 0.00 0.00 59 1014.9
20260901201520 33 223 4.8 11.3 0.00 0.00 0.00 59 1015.0
20260901200033 33 199 4.8 9.7 0.00 0.00 0.00 59 1015.1